WB8ZTP Weather Reports


Display with metric or nautical units.
time (UTC)temp
F
wind
direction
speed
MPH
gust
MPH
rain 1hr
in
rain 24hr
in
rain mn
in
humidity
%
barometer
mb
20260905174513 78 192 1.0 4.0 0.00 0.00 0.00 80 1014.8
20260905173022 77 67 0.0 2.0 0.00 0.00 0.00 83 1015.0
20260905171506 77 155 0.0 2.0 0.00 0.00 0.00 85 1015.1
20260905170005 76 154 0.0 4.0 0.00 0.00 0.00 85 1015.2
20260905164601 75 20 0.0 1.0 0.00 0.00 0.00 87 1015.3
20260905163058 74 20 0.0 2.0 0.00 0.00 0.00 86 1015.2
20260905161555 73 19 0.0 6.0 0.00 0.00 0.00 88 1015.0
20260905160052 73 29 1.0 3.0 0.00 0.00 0.00 90 1015.1
20260905154557 72 44 0.0 3.0 0.00 0.00 0.00 91 1015.0
20260905153049 72 34 0.0 3.0 0.00 0.00 0.00 91 1015.0
20260905151550 71 36 0.0 2.0 0.00 0.00 0.00 91 1015.1
20260905150049 71 57 0.0 2.0 0.00 0.00 0.00 91 1014.9
20260905144548 71 318 0.0 2.0 0.00 0.00 0.00 91 1014.7
20260905143051 70 318 0.0 3.0 0.00 0.00 0.00 91 1014.5
20260905141547 70 318 0.0 1.0 0.00 0.00 0.00 91 1014.6
20260905140046 69 318 0.0 3.0 0.00 0.00 0.00 91 1014.6
20260905134556 69 318 0.0 2.0 0.00 0.00 0.00 91 1014.6
20260905133053 69 318 0.0 2.0 0.00 0.00 0.00 91 1014.4
20260905131544 69 318 0.0 4.0 0.00 0.00 0.00 90 1014.5
20260905130044 68 321 0.0 3.0 0.00 0.00 0.00 91 1014.6
20260905124543 68 321 1.0 5.0 0.00 0.00 0.00 91 1015.2
20260905123042 68 235 2.0 6.0 0.00 0.00 0.00 91 1014.6
20260905121542 68 220 3.0 7.0 0.00 0.00 0.00 91 1014.6
20260905120044 68 225 3.0 7.0 0.00 0.00 0.00 91 1014.2
20260905114540 68 152 3.0 5.0 0.00 0.00 0.00 91 1014.0
20260905113039 68 348 0.0 1.0 0.00 0.00 0.00 90 1015.7
20260905111541 68 348 0.0 0.0 0.00 0.00 0.00 91 1016.0
20260905110045 68 348 0.0 2.0 0.00 0.00 0.00 91 1016.2
20260905104537 68 348 0.0 2.0 0.00 0.00 0.00 91 1016.3
20260905103035 68 348 0.0 2.0 0.00 0.00 0.00 91 1016.3
20260905101537 69 355 3.0 12.0 0.00 0.00 0.00 91 1015.7
20260905100029 70 5 9.0 18.0 0.00 0.00 0.00 91 1015.7
20260905094528 72 5 3.0 8.0 0.00 0.00 0.00 90 1015.3
20260905093027 72 169 0.0 1.0 0.00 0.00 0.00 90 1014.9
20260905091527 72 169 0.0 3.0 0.00 0.00 0.00 90 1014.8
20260905090031 72 169 0.0 3.0 0.00 0.00 0.00 90 1014.6
20260905084525 72 257 2.0 7.0 0.00 0.00 0.00 90 1015.1
20260905083025 71 230 2.0 5.0 0.00 0.00 0.00 90 1014.5
20260905081525 71 190 1.0 3.0 0.00 0.00 0.00 90 1013.8
20260905080021 70 190 0.0 0.0 0.00 0.00 0.00 90 1013.6
20260905074527 70 190 0.0 0.0 0.00 0.00 0.00 90 1013.4
20260905073016 70 190 0.0 0.0 0.00 0.00 0.00 90 1014.0
20260905071518 70 190 0.0 0.0 0.00 0.00 0.00 90 1014.4
20260905070014 70 190 0.0 0.0 0.00 0.00 0.00 90 1014.2
20260905064513 70 190 0.0 0.0 0.00 0.00 0.00 90 1014.5
20260905063013 70 190 0.0 0.0 0.00 0.00 0.00 90 1014.3
20260905061510 70 190 0.0 0.0 0.00 0.00 0.00 90 1014.7
20260905060008 70 190 0.0 0.0 0.00 0.00 0.00 90 1014.9
20260905054506 70 190 0.0 0.0 0.00 0.00 0.00 90 1015.1
20260905053005 70 190 0.0 0.0 0.00 0.00 0.00 90 1015.2
20260905051506 70 190 0.0 0.0 0.00 0.00 0.00 90 1015.3
20260905050004 71 190 0.0 0.0 0.00 0.00 0.00 90 1015.3
20260905044502 71 190 0.0 0.0 0.00 0.00 0.00 90 1015.3
20260905043100 70 190 0.0 0.0 0.00 0.00 0.00 90 1015.5
20260905041600 70 190 0.0 0.0 0.00 0.00 0.00 90 1015.6
20260905040058 70 190 0.0 0.0 0.00 0.00 0.00 90 1015.6
20260905034556 70 190 0.0 0.0 0.00 0.00 0.00 90 1015.7
20260905033056 70 190 0.0 0.0 0.00 0.00 0.00 90 1015.5
20260905031604 70 190 0.0 0.0 0.00 0.00 0.00 90 1015.7
20260905030100 71 190 0.0 0.0 0.00 0.00 0.00 90 1015.7
20260905024601 71 190 0.0 0.0 0.00 0.00 0.00 90 1015.8
20260905023053 71 190 0.0 0.0 0.00 0.00 0.00 90 1015.8
20260905021553 71 190 0.0 0.0 0.00 0.00 0.00 91 1015.8
20260905020053 71 190 0.0 0.0 0.00 0.00 0.00 91 1015.6
20260905014557 71 190 0.0 0.0 0.00 0.00 0.00 91 1015.6
20260905013058 71 190 0.0 0.0 0.00 0.00 0.00 91 1015.6
20260905011551 72 190 0.0 0.0 0.00 0.00 0.00 91 1015.6
20260905010051 72 190 0.0 0.0 0.00 0.00 0.00 90 1015.6
20260905004606 72 190 0.0 0.0 0.00 0.00 0.00 90 1015.5
20260905003055 73 190 0.0 0.0 0.00 0.00 0.00 90 1015.0
20260905001550 74 190 0.0 0.0 0.00 0.00 0.00 90 1014.8
20260905000051 75 190 0.0 0.0 0.00 0.00 0.00 89 1014.9
20260904234548 76 190 0.0 2.0 0.00 0.00 0.00 88 1015.0
20260904233048 76 190 0.0 1.0 0.00 0.00 0.00 87 1015.1
20260904231547 77 190 0.0 1.0 0.00 0.00 0.00 87 1014.8
20260904224546 76 190 0.0 2.0 0.00 0.00 0.00 89 1015.1
20260904223046 76 190 0.0 0.0 0.00 0.00 0.00 89 1015.0
20260904221546 76 190 0.0 1.0 0.00 0.00 0.00 87 1015.0
20260904220046 76 190 0.0 1.0 0.00 0.00 0.00 86 1014.5
20260904214544 77 192 2.0 6.0 0.00 0.00 0.00 85 1014.0
20260904213044 77 190 3.0 6.0 0.00 0.00 0.00 83 1013.1
20260904211540 78 149 1.0 4.0 0.00 0.00 0.00 83 1013.5
20260904210037 79 186 2.0 5.0 0.00 0.00 0.00 81 1014.3
20260904204535 80 307 0.0 2.0 0.00 0.00 0.00 81 1014.9
20260904203033 81 13 0.0 2.0 0.00 0.00 0.00 82 1015.1
20260904201531 82 14 0.0 3.0 0.00 0.00 0.00 77 1015.4
20260904200030 81 13 0.0 3.0 0.00 0.00 0.00 77 1015.6
20260904194527 80 51 1.0 4.0 0.00 0.00 0.00 81 1016.1
20260904193035 78 32 2.0 10.0 0.00 0.00 0.00 81 1016.3
20260904191525 77 24 3.0 9.0 0.00 0.00 0.00 85 1016.5
20260904190036 76 349 4.0 8.0 0.00 0.00 0.00 84 1016.8
20260904184523 75 309 2.0 10.0 0.00 0.00 0.00 83 1017.1
20260904183022 76 41 4.0 9.0 0.00 0.00 0.00 87 1017.0
20260904181522 78 19 2.0 8.0 0.00 0.00 0.00 90 1017.3
20260904180021 78 346 2.0 5.0 0.00 0.00 0.00 90 1017.1